When you browse on this site, cookies collect data to enhance your experience and personalize the content and advertising you see.
Visit our Privacy Policy to learn more. By continuing to use the site, you agree to this use of cookies and data.
  • In Hungary
  • List of Countries
  • For 7 days
  • Water Temperature
  • Weather Map
  • News
  • Weather Widgets
  • user-avatar
    Login

    Hourly Weather Shapih

    Today, 13 October, Sunday

    Time Temperature Precipitation Wind Pressure Humidity
    00:00 +4°C° 0 mm 2 mps 634 mmHg 64%
    01:00 +4°C° 0 mm 2 mps 634 mmHg 57%
    02:00 +4°C° 0 mm 2 mps 635 mmHg 50%
    03:00 +4°C° 0 mm 2 mps 635 mmHg 44%
    04:00 +5°C° 0 mm 1 mps 635 mmHg 40%
    05:00 +5°C° 0 mm 1 mps 635 mmHg 37%
    06:00 +4°C° 0 mm 0 mps 635 mmHg 34%
    07:00 +7°C° 0 mm 1 mps 636 mmHg 36%
    08:00 +9°C° 0 mm 1 mps 637 mmHg 37%
    09:00 +11°C° 0 mm 1 mps 638 mmHg 38%
    10:00 +12°C° 0 mm 1 mps 638 mmHg 42%
    11:00 +12°C° 0 mm 1 mps 639 mmHg 45%
    12:00 +13°C° 0 mm 2 mps 639 mmHg 49%
    13:00 +13°C° 0 mm 2 mps 639 mmHg 49%
    14:00 +14°C° 0 mm 1 mps 639 mmHg 50%
    15:00 +14°C° 0 mm 2 mps 639 mmHg 52%
    16:00 +12°C° 0 mm 1 mps 638 mmHg 62%
    17:00 +10°C° 0 mm 1 mps 637 mmHg 71%
    18:00 +7°C° 0 mm 0 mps 636 mmHg 81%
    19:00 +7°C° 0 mm 0 mps 636 mmHg 80%
    20:00 +7°C° 0 mm 0 mps 636 mmHg 78%
    21:00 +6°C° 0 mm 0 mps 636 mmHg 77%
    22:00 +6°C° 0 mm 0 mps 636 mmHg 75%
    23:00 +7°C° 0 mm 1 mps 636 mmHg 72%

    Tomorrow, 14 October, Monday

    Time Temperature Precipitation Wind Pressure Humidity
    00:00 +7°C° 0 mm 1 mps 636 mmHg 70%
    01:00 +7°C° 0 mm 1 mps 636 mmHg 67%
    02:00 +7°C° 0 mm 1 mps 636 mmHg 63%
    03:00 +7°C° 0 mm 1 mps 636 mmHg 60%
    04:00 +7°C° 0 mm 1 mps 636 mmHg 56%
    05:00 +8°C° 0 mm 1 mps 636 mmHg 53%
    06:00 +8°C° 0 mm 1 mps 636 mmHg 49%
    07:00 +10°C° 0 mm 1 mps 637 mmHg 44%
    08:00 +13°C° 0 mm 1 mps 638 mmHg 39%
    09:00 +15°C° 0 mm 0 mps 639 mmHg 34%
    10:00 +18°C° 0 mm 1 mps 639 mmHg 34%
    11:00 +19°C° 0 mm 1 mps 639 mmHg 34%
    12:00 +19°C° 0 mm 2 mps 639 mmHg 33%
    13:00 +20°C° 0 mm 1 mps 639 mmHg 35%
    14:00 +19°C° 0 mm 1 mps 639 mmHg 37%
    15:00 +19°C° 0 mm 1 mps 638 mmHg 39%
    16:00 +16°C° 0 mm 1 mps 638 mmHg 47%
    17:00 +13°C° 0 mm 1 mps 637 mmHg 55%
    18:00 +11°C° 0 mm 1 mps 636 mmHg 63%
    19:00 +10°C° 0 mm 1 mps 636 mmHg 60%
    20:00 +10°C° 0 mm 1 mps 636 mmHg 56%
    21:00 +9°C° 0 mm 1 mps 636 mmHg 53%
    22:00 +9°C° 0 mm 1 mps 636 mmHg 49%
    23:00 +9°C° 0 mm 1 mps 635 mmHg 45%

    Day after tomorrow, 15 October, Tuesday

    Time Temperature Precipitation Wind Pressure Humidity
    00:00 +9°C° 0 mm 1 mps 635 mmHg 41%
    01:00 +8°C° 0 mm 1 mps 635 mmHg 40%
    02:00 +8°C° 0 mm 1 mps 635 mmHg 38%
    03:00 +8°C° 0 mm 1 mps 634 mmHg 37%
    04:00 +8°C° 0 mm 1 mps 634 mmHg 36%
    05:00 +8°C° 0 mm 1 mps 634 mmHg 35%
    06:00 +8°C° 0 mm 1 mps 634 mmHg 35%
    07:00 +11°C° 0 mm 1 mps 635 mmHg 32%
    08:00 +13°C° 0 mm 1 mps 636 mmHg 29%
    09:00 +16°C° 0 mm 1 mps 637 mmHg 27%
    10:00 +18°C° 0 mm 1 mps 637 mmHg 26%
    11:00 +19°C° 0 mm 1 mps 637 mmHg 26%
    12:00 +19°C° 0 mm 2 mps 637 mmHg 26%
    13:00 +20°C° 0 mm 1 mps 636 mmHg 27%
    14:00 +20°C° 0 mm 1 mps 636 mmHg 29%
    15:00 +20°C° 0 mm 1 mps 635 mmHg 31%
    16:00 +18°C° 0 mm 1 mps 635 mmHg 38%
    17:00 +14°C° 0 mm 1 mps 634 mmHg 45%
    18:00 +12°C° 0 mm 1 mps 633 mmHg 53%
    19:00 +12°C° 0 mm 1 mps 633 mmHg 51%
    20:00 +11°C° 0 mm 1 mps 633 mmHg 49%
    21:00 +11°C° 0 mm 1 mps 633 mmHg 47%
    22:00 +11°C° 0 mm 1 mps 633 mmHg 45%
    23:00 +11°C° 0 mm 1 mps 633 mmHg 43%

    16 October, Wednesday

    Time Temperature Precipitation Wind Pressure Humidity
    00:00 +10°C° 0 mm 1 mps 633 mmHg 41%
    01:00 +10°C° 0 mm 1 mps 633 mmHg 40%
    02:00 +10°C° 0 mm 1 mps 633 mmHg 38%
    03:00 +10°C° 0 mm 1 mps 632 mmHg 37%
    04:00 +9°C° 0 mm 2 mps 632 mmHg 36%
    05:00 +9°C° 0 mm 2 mps 632 mmHg 36%
    06:00 +9°C° 0 mm 2 mps 632 mmHg 35%
    07:00 +12°C° 0 mm 1 mps 633 mmHg 33%
    08:00 +15°C° 0 mm 1 mps 635 mmHg 30%
    09:00 +16°C° 0 mm 0 mps 636 mmHg 28%
    10:00 +19°C° 0 mm 1 mps 636 mmHg 27%
    11:00 +20°C° 0 mm 1 mps 636 mmHg 27%
    12:00 +20°C° 0 mm 2 mps 636 mmHg 26%
    13:00 +20°C° 0 mm 2 mps 636 mmHg 29%
    14:00 +19°C° 0 mm 2 mps 635 mmHg 31%
    15:00 +19°C° 0 mm 2 mps 635 mmHg 33%
    16:00 +18°C° 0 mm 1 mps 634 mmHg 40%
    17:00 +14°C° 0 mm 1 mps 634 mmHg 48%
    18:00 +11°C° 0 mm 0 mps 633 mmHg 55%
    19:00 +11°C° 0 mm 1 mps 633 mmHg 54%
    20:00 +11°C° 0 mm 1 mps 633 mmHg 53%
    21:00 +10°C° 0 mm 1 mps 633 mmHg 52%
    22:00 +10°C° 0 mm 1 mps 633 mmHg 53%
    23:00 +10°C° 0 mm 1 mps 633 mmHg 53%

    17 October, Thursday

    Time Temperature Precipitation Wind Pressure Humidity
    00:00 +9°C° 0 mm 1 mps 633 mmHg 53%
    01:00 +9°C° 0 mm 1 mps 633 mmHg 54%
    02:00 +9°C° 0 mm 1 mps 633 mmHg 54%
    03:00 +9°C° 0 mm 1 mps 632 mmHg 55%
    04:00 +9°C° 0 mm 1 mps 633 mmHg 55%
    05:00 +9°C° 0 mm 1 mps 633 mmHg 55%
    06:00 +8°C° 0 mm 1 mps 633 mmHg 56%
    07:00 +11°C° 0 mm 1 mps 633 mmHg 50%
    08:00 +13°C° 0 mm 1 mps 634 mmHg 45%
    09:00 +16°C° 0 mm 1 mps 635 mmHg 40%
    10:00 +17°C° 0 mm 2 mps 635 mmHg 37%
    11:00 +18°C° 0 mm 2 mps 635 mmHg 35%
    12:00 +19°C° 0 mm 2 mps 636 mmHg 33%
    13:00 +18°C° 0 mm 2 mps 635 mmHg 35%
    14:00 +18°C° 0 mm 2 mps 635 mmHg 36%
    15:00 +18°C° 0 mm 2 mps 635 mmHg 37%
    16:00 +16°C° 0 mm 1 mps 634 mmHg 45%
    17:00 +13°C° 0 mm 1 mps 633 mmHg 54%
    18:00 +11°C° 0 mm 1 mps 632 mmHg 62%
    19:00 +10°C° 0 mm 1 mps 632 mmHg 61%
    20:00 +10°C° 0 mm 1 mps 632 mmHg 60%
    21:00 +10°C° 0 mm 1 mps 632 mmHg 58%
    22:00 +9°C° 0 mm 1 mps 632 mmHg 59%
    23:00 +9°C° 0 mm 1 mps 631 mmHg 59%

    18 October, Friday

    Time Temperature Precipitation Wind Pressure Humidity
    00:00 +9°C° 0 mm 1 mps 631 mmHg 60%
    01:00 +9°C° 0 mm 1 mps 631 mmHg 61%
    02:00 +9°C° 0 mm 1 mps 631 mmHg 61%
    03:00 +9°C° 0 mm 1 mps 631 mmHg 62%
    04:00 +9°C° 0 mm 1 mps 631 mmHg 61%
    05:00 +9°C° 0 mm 1 mps 630 mmHg 59%
    06:00 +9°C° 0 mm 1 mps 630 mmHg 58%
    07:00 +11°C° 0 mm 1 mps 631 mmHg 51%
    08:00 +14°C° 0 mm 1 mps 632 mmHg 45%
    09:00 +16°C° 0 mm 1 mps 633 mmHg 39%
    10:00 +18°C° 0 mm 1 mps 633 mmHg 36%
    11:00 +20°C° 0 mm 1 mps 633 mmHg 33%
    12:00 +21°C° 0 mm 1 mps 633 mmHg 31%
    13:00 +21°C° 0 mm 1 mps 633 mmHg 32%
    14:00 +20°C° 0 mm 1 mps 633 mmHg 33%
    15:00 +20°C° 0 mm 1 mps 632 mmHg 34%
    16:00 +18°C° 0 mm 1 mps 632 mmHg 41%
    17:00 +15°C° 0 mm 1 mps 631 mmHg 48%
    18:00 +13°C° 0 mm 1 mps 630 mmHg 54%
    19:00 +12°C° 0 mm 1 mps 630 mmHg 50%
    20:00 +12°C° 0 mm 1 mps 630 mmHg 45%
    21:00 +12°C° 0 mm 1 mps 630 mmHg 40%
    22:00 +11°C° 0 mm 1 mps 630 mmHg 40%
    23:00 +11°C° 0 mm 1 mps 630 mmHg 39%
    Show more